Weather History for KLYV - March, 2013

Change the Weather History Date:

Sunday, March 31, 2013

  Actual Average (KFSD) Record (KFSD)
Temperature  
Mean Temperature 32 °F 40 °F  
Max Temperature 39 °F 51 °F 83 °F (2012)
Min Temperature 26 °F 28 °F 6 °F (1899)
Degree Days  
Heating Degree Days 32 26  
Month to date heating degree days 995  
Since 1 July heating degree days 6845  
Cooling Degree Days 0 0  
Month to date cooling degree days 0  
Year to date cooling degree days 0  
Moisture  
Dew Point 25 °F    
Average Humidity 74    
Maximum Humidity 100    
Minimum Humidity 48    
Precipitation  
Precipitation 0.00 in 0.09 in 3.27 in (2007)
Month to date precipitation 1.76  
Year to date precipitation 2.92  
Snow  
Snow 0.00 in 0.20 in 9.30 in (1998)
Month to date snowfall 8.4  
Since 1 July snowfall 39.9  
Snow Depth -    
Sea Level Pressure  
Sea Level Pressure 30.00 in    
Wind  
Wind Speed 12 mph (NNW)    
Max Wind Speed 23 mph    
Max Gust Speed 29 mph    
Visibility 8 miles    
Events Fog , Rain    
T = Trace of Precipitation, MM = Missing Value Source: NWS Daily Summary

Daily Weather History Graph

Daily Weather History Graph

Search for Another Location

Airport or City:

Trip Planner

Search our weather history database for the weather conditions in past years. The results will help you decide how hot, cold, wet, or windy it might be!

Date:

Astronomy

Mar. 31, 2013 Rise Set
Actual Time 7:07 AM CDT 7:50 PM CDT
Civil Twilight 6:38 AM CDT 8:19 PM CDT
Nautical Twilight 6:04 AM CDT 8:54 PM CDT
Astronomical Twilight 5:29 AM CDT 9:29 PM CDT
Moon 12:05 AM CDT (3/31) 9:48 AM CDT (3/31)
Length of Visible Light 13h 40m
Length of Day
12h 43m
Waning Gibbous, 77% of the Moon is Illuminated
Mar 31
Waning Gibbous
Apr 2
Last Quarter
Apr 10
New
Apr 18
First Quarter
Apr 25
Full

Hourly Weather History & Observations

Time (CDT) Temp. Windchill Dew Point Humidity Pressure Visibility Wind Dir Wind Speed Gust Speed Precip Events Conditions
12:17 AM 33.8 °F 28.6 °F 33.8 °F 100% 29.93 in 0.2 mi NW 5.8 mph - N/A Fog Fog
12:37 AM 33.8 °F 27.7 °F 32.0 °F 93% 29.94 in 0.2 mi NW 6.9 mph - N/A Rain Light Rain
12:57 AM 33.8 °F 25.8 °F 32.0 °F 93% 29.95 in 0.2 mi NNW 10.4 mph - N/A Fog Fog
1:17 AM 33.8 °F 26.4 °F 32.0 °F 93% 29.95 in 0.5 mi NNW 9.2 mph - N/A Fog Fog
1:37 AM 33.8 °F 27.7 °F 32.0 °F 93% 29.95 in 1.0 mi NNW 6.9 mph - N/A   Overcast
1:57 AM 33.8 °F 27.0 °F 32.0 °F 93% 29.97 in 2.5 mi NNW 8.1 mph - N/A   Overcast
2:17 AM 33.8 °F 26.4 °F 32.0 °F 93% 29.96 in 5.0 mi NNW 9.2 mph - N/A   Mostly Cloudy
2:37 AM 32.0 °F 23.0 °F 32.0 °F 100% 29.96 in 5.0 mi NW 11.5 mph - N/A   Scattered Clouds
2:57 AM 33.8 °F 26.4 °F 32.0 °F 93% 29.95 in 7.0 mi NW 9.2 mph - N/A   Scattered Clouds
3:17 AM 33.8 °F 27.0 °F 32.0 °F 93% 29.95 in 5.0 mi NW 8.1 mph - N/A   Overcast
3:37 AM 33.8 °F 25.8 °F 32.0 °F 93% 29.95 in 5.0 mi WNW 10.4 mph - N/A   Mostly Cloudy
3:57 AM 32.0 °F 23.6 °F 32.0 °F 100% 29.93 in 4.0 mi WNW 10.4 mph - N/A   Mostly Cloudy
4:17 AM 32.0 °F 23.6 °F 32.0 °F 100% 29.92 in 4.0 mi WNW 10.4 mph - N/A   Scattered Clouds
4:37 AM 32.0 °F 23.6 °F 32.0 °F 100% 29.92 in 4.0 mi WNW 10.4 mph - N/A   Clear
4:57 AM 32.0 °F 23.6 °F 32.0 °F 100% 29.91 in 5.0 mi WNW 10.4 mph - N/A   Clear
5:17 AM 32.0 °F 22.5 °F 32.0 °F 100% 29.91 in 5.0 mi WNW 12.7 mph - N/A   Clear
5:37 AM 32.0 °F 23.6 °F 32.0 °F 100% 29.92 in 5.0 mi WNW 10.4 mph - N/A   Clear
5:57 AM 32.0 °F 24.2 °F 30.2 °F 93% 29.91 in 5.0 mi WNW 9.2 mph - N/A   Clear
6:17 AM 32.0 °F 22.5 °F 30.2 °F 93% 29.92 in 5.0 mi WNW 12.7 mph - N/A   Clear
6:37 AM 32.0 °F 23.0 °F 30.2 °F 93% 29.92 in 5.0 mi WNW 11.5 mph - N/A   Clear
6:57 AM 32.0 °F 22.5 °F 30.2 °F 93% 29.92 in 7.0 mi WNW 12.7 mph - N/A   Clear
7:17 AM 32.0 °F 22.1 °F 30.2 °F 93% 29.92 in 7.0 mi WNW 13.8 mph 18.4 mph N/A   Clear
7:37 AM 32.0 °F 23.0 °F 30.2 °F 93% 29.92 in 5.0 mi WNW 11.5 mph - N/A   Clear
7:57 AM 32.0 °F 22.5 °F 30.2 °F 93% 29.93 in 4.0 mi WNW 12.7 mph - N/A   Clear
8:17 AM 33.8 °F 24.8 °F 30.2 °F 87% 29.93 in 7.0 mi WNW 12.7 mph 17.3 mph N/A   Clear
8:37 AM 33.8 °F 23.9 °F 30.2 °F 87% 29.94 in 10.0 mi NW 15.0 mph 20.7 mph N/A   Clear
8:57 AM 33.8 °F 23.2 °F 30.2 °F 87% 29.95 in 10.0 mi NW 17.3 mph 23.0 mph N/A   Clear
9:17 AM 33.8 °F 23.2 °F 30.2 °F 87% 29.96 in 10.0 mi NNW 17.3 mph 23.0 mph N/A   Mostly Cloudy
9:37 AM 35.6 °F 25.5 °F 28.4 °F 75% 29.96 in 10.0 mi North 17.3 mph 25.3 mph N/A   Scattered Clouds
9:57 AM 33.8 °F 23.9 °F 28.4 °F 81% 29.97 in 10.0 mi NNW 15.0 mph 23.0 mph N/A   Mostly Cloudy
10:17 AM 35.6 °F 24.8 °F 28.4 °F 75% 29.98 in 10.0 mi NNW 19.6 mph 28.8 mph N/A   Mostly Cloudy
10:37 AM 35.6 °F 25.9 °F 28.4 °F 75% 29.99 in 10.0 mi NNW 16.1 mph 25.3 mph N/A   Scattered Clouds
10:58 AM 35.6 °F 24.0 °F 26.6 °F 70% 29.99 in 10.0 mi NNW 23.0 mph 26.5 mph N/A   Mostly Cloudy
11:17 AM 35.6 °F 24.5 °F 26.6 °F 70% 29.99 in 10.0 mi NNW 20.7 mph 25.3 mph N/A   Mostly Cloudy
11:37 AM 35.6 °F 25.2 °F 26.6 °F 70% 29.99 in 10.0 mi NNW 18.4 mph 23.0 mph N/A   Mostly Cloudy
11:57 AM 37.4 °F 26.9 °F 24.8 °F 60% 29.99 in 10.0 mi North 20.7 mph 27.6 mph N/A   Scattered Clouds
12:17 PM 37.4 °F 27.2 °F 24.8 °F 60% 29.99 in 10.0 mi North 19.6 mph 26.5 mph N/A   Scattered Clouds
12:37 PM 37.4 °F 27.5 °F 23.0 °F 56% 29.99 in 10.0 mi North 18.4 mph - N/A   Scattered Clouds
12:57 PM 37.4 °F 27.5 °F 26.6 °F 65% 30.00 in 10.0 mi North 18.4 mph 23.0 mph N/A   Mostly Cloudy
1:17 PM 37.4 °F 27.5 °F 26.6 °F 65% 30.00 in 10.0 mi North 18.4 mph 24.2 mph N/A   Mostly Cloudy
1:37 PM 37.4 °F 27.8 °F 24.8 °F 60% 30.01 in 10.0 mi NNW 17.3 mph 20.7 mph N/A   Mostly Cloudy
1:57 PM 37.4 °F 28.9 °F 23.0 °F 56% 30.01 in 10.0 mi North 13.8 mph 25.3 mph N/A   Mostly Cloudy
2:17 PM 37.4 °F 28.2 °F 23.0 °F 56% 30.00 in 10.0 mi North 16.1 mph 26.5 mph N/A   Mostly Cloudy
2:37 PM 39.2 °F 30.5 °F 23.0 °F 52% 30.00 in 10.0 mi NNW 16.1 mph 24.2 mph N/A   Scattered Clouds
2:57 PM 39.2 °F 29.8 °F 23.0 °F 52% 30.00 in 10.0 mi North 18.4 mph 23.0 mph N/A   Scattered Clouds
3:17 PM 39.2 °F 31.2 °F 21.2 °F 49% 30.00 in 10.0 mi NNW 13.8 mph 24.2 mph N/A   Scattered Clouds
3:37 PM 37.4 °F 27.8 °F 21.2 °F 52% 30.00 in 10.0 mi North 17.3 mph 24.2 mph N/A   Scattered Clouds
3:57 PM 39.2 °F 32.0 °F 21.2 °F 49% 30.00 in 10.0 mi NNW 11.5 mph 23.0 mph N/A   Scattered Clouds
4:17 PM 37.4 °F 27.8 °F 21.2 °F 52% 30.01 in 10.0 mi NNW 17.3 mph 23.0 mph N/A   Scattered Clouds
4:37 PM 37.4 °F 27.8 °F 21.2 °F 52% 30.02 in 10.0 mi North 17.3 mph 21.9 mph N/A   Scattered Clouds
4:57 PM 35.6 °F 25.5 °F 19.4 °F 52% 30.01 in 10.0 mi NNW 17.3 mph - N/A   Mostly Cloudy
5:17 PM 35.6 °F 25.9 °F 19.4 °F 52% 30.02 in 10.0 mi North 16.1 mph 21.9 mph N/A   Mostly Cloudy
5:37 PM 35.6 °F 26.2 °F 19.4 °F 52% 30.02 in 10.0 mi North 15.0 mph 20.7 mph N/A   Overcast
5:57 PM 33.8 °F 23.5 °F 15.8 °F 48% 30.03 in 10.0 mi North 16.1 mph 21.9 mph N/A   Overcast
6:17 PM 33.8 °F 23.5 °F 15.8 °F 48% 30.04 in 10.0 mi North 16.1 mph 23.0 mph N/A   Overcast
6:37 PM 32.0 °F 21.2 °F 17.6 °F 55% 30.05 in 10.0 mi North 16.1 mph - N/A   Mostly Cloudy
6:57 PM 32.0 °F 22.1 °F 17.6 °F 55% 30.06 in 10.0 mi North 13.8 mph - N/A   Mostly Cloudy
7:17 PM 32.0 °F 21.2 °F 17.6 °F 55% 30.08 in 10.0 mi North 16.1 mph 21.9 mph N/A   Mostly Cloudy
7:37 PM 32.0 °F 22.5 °F 17.6 °F 55% 30.08 in 10.0 mi North 12.7 mph 19.6 mph N/A   Scattered Clouds
7:57 PM 30.2 °F 20.8 °F 17.6 °F 60% 30.09 in 10.0 mi North 11.5 mph 19.6 mph N/A   Scattered Clouds
8:17 PM 30.2 °F 20.2 °F 17.6 °F 60% 30.10 in 10.0 mi North 12.7 mph 17.3 mph N/A   Scattered Clouds
8:37 PM 30.2 °F 20.8 °F 17.6 °F 60% 30.11 in 10.0 mi North 11.5 mph 20.7 mph N/A   Clear
8:57 PM 30.2 °F 22.6 °F 17.6 °F 60% 30.12 in 10.0 mi North 8.1 mph - N/A   Scattered Clouds
9:17 PM 28.4 °F 19.7 °F 19.4 °F 69% 30.13 in 10.0 mi North 9.2 mph - N/A   Scattered Clouds
9:37 PM 28.4 °F 19.7 °F 17.6 °F 64% 30.14 in 10.0 mi North 9.2 mph 17.3 mph N/A   Clear
9:57 PM 28.4 °F 20.4 °F 17.6 °F 64% 30.15 in 10.0 mi North 8.1 mph - N/A   Scattered Clouds
10:17 PM 26.6 °F 16.2 °F 17.6 °F 69% 30.16 in 10.0 mi North 11.5 mph 19.6 mph N/A   Clear
10:37 PM 26.6 °F 16.8 °F 17.6 °F 69% 30.17 in 10.0 mi North 10.4 mph - N/A   Clear
10:58 PM 26.6 °F 16.2 °F 17.6 °F 69% 30.17 in 10.0 mi North 11.5 mph - N/A   Clear
11:17 PM 26.6 °F 16.8 °F 17.6 °F 69% 30.17 in 10.0 mi North 10.4 mph - N/A   Clear
11:37 PM 26.6 °F 16.2 °F 17.6 °F 69% 30.17 in 10.0 mi North 11.5 mph - N/A   Clear
11:57 PM 26.6 °F 15.7 °F 15.8 °F 64% 30.18 in 10.0 mi North 12.7 mph - N/A   Clear